Flag for Qatar Weather past 2 weeks in Al-Jamiliyah, Qatar

Now
90 °F

Clear.


Feels Like: 93 °F
Forecast: 94 / 106 °F
Wind: 16 mph from Northwest

Location: Al Udeid

Current Time: Jul 6, 2015 at 4:07:05 AM

Latest Report: Jul 6, 2015 at 2:58 AM


Visibility: N/A

Pressure: 29.50 "Hg

Humidity: 46%

Dew point: 67 °F

Location of Al-JamiliyahLocation

Historic Weather in Al-Jamiliyah — Graph

°F

Al-Jamiliyah temperature yesterday

Maximum temperature yesterday: 113 °F (at 3:58 PM)
Minimum temperature yesterday: 86 °F (at 4:58 AM)
Average temperature yesterday: 98 °F

Past Weeks' High & Low Weather Summary

 TemperatureHumidityPressure
High115 °F (Jul 4, 1:57 PM)90% (Jul 4, 4:58 AM)29.66 "Hg (Jul 4, 4:58 AM)
Low80 °F (Jun 29, 4:58 AM)6% (Jun 25, 2:58 PM)29.43 "Hg (Jun 21, 2:58 AM)
Average96 °F28%29.54 "Hg
* Reported Jun 21 2:58 AM — Jul 6 2:58 AM, Al-Jamiliyah, Weather by CustomWeather, © 2015

Note: Actual official high and low records may vary slightly from our data, if they occured in-between our weather recording intervals... More about our weather records

Advertising

Al-Jamiliyah weather history for previous 24 hours

 ConditionsComfort  
Time TempWeatherWind HumidityBarometerVisibility
2:58 AM
Mon, Jul 6
90 °FClear.16 mph46%29.50 "HgN/A
1:59 AM91 °FSunny.15 mph43%29.50 "HgN/A
12:58 AM90 °FSunny.17 mph53%29.51 "HgN/A
10:58 PM
Sun, Jul 5
92 °FSunny.9 mph48%29.53 "HgN/A
8:58 PM96 °FSunny.10 mph41%29.53 "HgN/A
6:58 PM102 °FSunny.14 mph29%29.52 "HgN/A
4:58 PM110 °FSunny.21 mph13%29.49 "HgN/A
3:58 PM113 °FSunny.24 mph8%29.49 "HgN/A
1:57 PM113 °FSunny.20 mph13%29.51 "HgN/A
12:58 PM113 °FSunny.8 mph16%29.52 "HgN/A
11:58 AM111 °FClear.6 mph14%29.54 "HgN/A
10:58 AM107 °FClear.5 mph23%29.55 "HgN/A
9:58 AM104 °FClear.6 mph25%29.56 "HgN/A
8:59 AM100 °FClear.3 mph30%29.57 "HgN/A
7:58 AM95 °FClear.7 mph48%29.58 "HgN/A
6:58 AM90 °FClear.7 mph67%29.57 "Hg5 mi
5:58 AM87 °FClear.6 mph74%29.56 "Hg4 mi
4:58 AM86 °FFog.9 mph85%29.55 "Hg4 mi
Weather by CustomWeather, © 2015

See weather overviewHow to use our weather pages